Regional Weather Roundup
Issued by NWS

Home | Current Version | Previous Version | Graphics & Text | Print | Product List | Glossary Off
Versions: 1 2 3 4 5 6 7 8 9 10 11 12 13 14 15 16 17 18 19 20 21 22 23 24 25 26 27 28 29 30 31 32 33 34 35 36 37 38 39 40 41 42 43 44 45 46 47 48 49 50

000
ASUS43 KLSX 180707
RWRMO

WEATHER SUMMARY FOR MISSOURI
NATIONAL WEATHER SERVICE SPRINGFIELD MO
200 AM CDT SAT APR 18 2015

NOTE: "FAIR" INDICATES FEW OR NO CLOUDS BELOW 12,000 FEET WITH NO
       SIGNIFICANT WEATHER AND/OR OBSTRUCTIONS TO VISIBILITY.
       CURRENT SKY AND/OR WEATHER CONDITIONS ARE NOT AVAILABLE FOR
       CHILLICOTHE AND FARMINGTON.

MOZ001>031-035>038-043-044-053-054-180800-
...NORTHERN AND WESTERN MISSOURI...

CITY           SKY/WX    TMP DP  RH WIND       PRES   REMARKS
KANSAS CTY INT CLOUDY    64  57  78 E9        29.96F
KANSAS C DTWN  CLOUDY    65  57  75 NE5       29.94F
LEE`S SUMMIT   CLOUDY    63  57  81 NE6       29.96F
ST JOSEPH      CLOUDY    64  56  75 SE3       29.96F
CHILLICOTHE      N/A     61  59  93 E5        30.00F
KIRKSVILLE     CLOUDY    61  55  81 E5        30.01S

$$
MOZ066>068-077>081-088>096-101>105-180800-
...SOUTHWEST MISSOURI...

CITY           SKY/WX    TMP DP  RH WIND       PRES   REMARKS
SPRINGFIELD    CLOUDY    64  59  83 S10       29.98F
JOPLIN         CLOUDY    62  59  90 S7        29.96F

$$
MOZ032>034-039>042-045>050-055>058-069>072-180800-
...CENTRAL MISSOURI...

CITY           SKY/WX    TMP DP  RH WIND       PRES   REMARKS
COLUMBIA       MOCLDY    66  56  70 SE7       29.99S
JEFFERSON CITY CLOUDY    65  57  75 SE8       29.98F
ROLLA            N/A     63  56  78 S9        30.00F
SEDALIA        CLOUDY    64  55  72 SE5       29.97F
WHITEMAN AFB   CLOUDY    64  56  73 E3        29.95F
WARRENSBURG    CLOUDY    63  55  77 N3        29.96S
OSAGE BEACH    CLOUDY    64  54  68 SE7       29.99S

$$
MOZ051-052-059>065-180800-
...EAST CENTRAL MISSOURI...

CITY           SKY/WX    TMP DP  RH WIND       PRES   REMARKS
ST LOUIS INTL  PTCLDY    68  55  63 S3        30.01F
SPIRIT OF STL  PTCLDY    58  56  93 CALM      30.00F
ST CHARLES     CLEAR     58  57  97 NE3       30.01S

$$
MOZ072>076-082>087-097>100-106>115-180800-
...SOUTH CENTRAL AND SOUTHEAST MISSOURI...

CITY           SKY/WX    TMP DP  RH WIND       PRES   REMARKS
CAPE GIRARDEAU MOCLDY    57  57 100 SW3       30.01R FOG
FARMINGTON     MOCLDY    59  55  88 CALM      30.06S
POPLAR BLUFF   MOCLDY    58  56  93 NW3       30.00F FOG
WEST PLAINS    MOCLDY    62  59  90 SE3       30.02F

$$



USA.gov is the U.S. government's official web portal to all federal, state and local government web resources and services.